Location: Montreal
(45.5000°N, 73.5833°W)
Time: 14:19:56
(UTC-05:00)

Vanguard 1 - Pass Details

Date: 25 October 2017
Orbit: 650 x 3834 km, 34.2° (Epoch: 16 November)

Event Time Altitude Azimuth Distance (km) Brightness Sun altitude
Rises 05:12:13 0° 276° (W) 6,346 - -23.7°
Reaches altitude 10° 05:16:10 10° 270° (W) 5,696 - -23.1°
Exits shadow 05:22:31 27° 255° (WSW) 4,909 13.0 -21.9°
Maximum altitude 05:33:17 43° 207° (SSW) 4,569 13.1 -20.1°
Drops below altitude 10° 05:54:06 10° 146° (SE) 6,774 14.8 -16.4°
Sets 05:59:27 0° 140° (SE) 7,588 15.2 -15.5°
